Location: *
(46.1866°S, 178.5290°W)
Time: 10:48:10
(UTC+00:00)

SJ-12 - Pass Details

Date: 19 May 2021
Orbit: 568 x 584 km, 97.7° (Epoch: 14 June)

Event Time Altitude Azimuth Distance (km) Brightness Sun altitude
Rises 04:55:35 0° 166° (SSE) 2,818 7.1 -5.1°
Reaches altitude 10° 04:57:46 10° 164° (SSE) 1,912 6.2 -5.5°
Maximum altitude 05:01:55 76° 78° (ENE) 605 3.9 -6.2°
Drops below altitude 10° 05:06:01 10° 351° (N) 1,891 7.0 -6.8°
Sets 05:08:09 0° 349° (N) 2,783 7.9 -7.2°
